SV4JYD-13 Weather Reports


Display with metric or nautical units.
time (UTC)temp
F
wind
direction
speed
MPH
gust
MPH
rain 1hr
in
rain 24hr
in
rain mn
in
humidity
%
barometer
mb
20260507151522 73 309 4.0 5.0 0.00 0.00 0.00 74 1017.0
20260507150022 72 309 4.0 5.0 0.00 0.00 0.00 71 1017.0
20260507144521 71 309 4.0 5.0 0.00 0.00 0.00 70 1017.0
20260507143021 72 309 4.0 5.0 0.00 0.00 0.00 65 1017.0
20260507141521 71 309 4.0 5.0 0.00 0.00 0.00 61 1017.0
20260507140021 71 309 4.0 5.0 0.00 0.00 0.00 63 1017.0
20260507134521 72 309 4.0 5.0 0.00 0.00 0.00 63 1017.0
20260507133020 71 309 4.0 5.0 0.00 0.00 0.00 59 1017.0
20260507131520 72 309 4.0 5.0 0.00 0.00 0.00 59 1018.0
20260507130020 72 309 4.0 5.0 0.00 0.00 0.00 61 1018.0
20260507123019 72 309 4.0 5.0 0.00 0.00 0.00 62 1018.0
20260507121519 70 309 4.0 5.0 0.00 0.00 0.00 62 1018.0
20260507120018 70 309 4.0 5.0 0.00 0.00 0.00 64 1019.0
20260507114518 70 309 4.0 5.0 0.00 0.00 0.00 66 1019.0
20260507113018 70 309 4.0 5.0 0.00 0.00 0.00 69 1018.0
20260507111518 71 309 4.0 5.0 0.00 0.00 0.00 69 1018.0
20260507110017 71 309 4.0 5.0 0.00 0.00 0.00 70 1018.0
20260507104517 71 309 4.0 5.0 0.00 0.00 0.00 72 1018.0
20260507103017 71 309 4.0 5.0 0.00 0.00 0.00 70 1018.0
20260507101517 71 309 4.0 5.0 0.00 0.00 0.00 72 1018.0
20260507100016 72 309 4.0 5.0 0.00 0.00 0.00 79 1018.0
20260507094516 73 309 4.0 5.0 0.00 0.00 0.00 79 1018.0
20260507093016 68 280 1.0 1.0 0.00 0.00 0.00 75 1018.0
20260507091515 68 280 1.0 1.0 0.00 0.00 0.00 73 1018.0
20260507090015 68 280 1.0 1.0 0.00 0.00 0.00 76 1018.0
20260507084515 68 280 1.0 1.0 0.00 0.00 0.00 79 1018.0
20260507083015 68 280 1.0 1.0 0.00 0.00 0.00 83 1018.0
20260507081514 68 280 1.0 1.0 0.00 0.00 0.00 83 1018.0
20260507080014 68 280 1.0 1.0 0.00 0.00 0.00 84 1018.0
20260507074514 68 280 1.0 1.0 0.00 0.00 0.00 85 1018.0
20260507073013 68 280 2.0 1.0 0.00 0.00 0.00 85 1018.0
20260507071513 68 280 3.0 2.0 0.00 0.00 0.00 85 1018.0
20260507070014 63 292 1.0 1.0 0.00 0.00 0.00 10 1018.0
20260507064513 63 292 1.0 1.0 0.00 0.00 0.00 10 1018.0
20260507063012 63 292 1.0 1.0 0.00 0.00 0.00 10 1017.0
20260507061512 64 292 1.0 1.0 0.00 0.00 0.00 10 1017.0
20260507060012 65 292 2.0 1.0 0.00 0.00 0.00 10 1017.0
20260507054512 66 292 3.0 2.0 0.00 0.00 0.00 10 1017.0
20260507053011 59 329 1.0 1.0 0.00 0.00 0.00 10 1017.0
20260507051511 60 329 1.0 1.0 0.00 0.00 0.00 10 1017.0
20260507050011 59 329 1.0 1.0 0.00 0.00 0.00 10 1017.0
20260507044511 59 329 1.0 1.0 0.00 0.00 0.00 10 1017.0
20260507043010 59 329 1.0 1.0 0.00 0.00 0.00 99 1017.0
20260507041510 58 329 2.0 2.0 0.00 0.00 0.00 10 1017.0
20260507031732 56 310 2.0 2.0 0.00 0.00 0.00 10 1016.0
20260507030232 56 310 1.0 1.0 0.00 0.00 0.00 10 1016.0
20260507024731 57 310 2.0 2.0 0.00 0.00 0.00 10 1016.0
20260507023231 56 298 2.0 2.0 0.00 0.00 0.00 10 1016.0
20260507021731 56 298 2.0 2.0 0.00 0.00 0.00 10 1016.0
20260507020231 56 298 2.0 2.0 0.00 0.00 0.00 10 1016.0
20260507014731 57 298 2.0 2.0 0.00 0.00 0.00 10 1016.0
20260507013230 57 273 1.0 1.0 0.00 0.00 0.00 10 1016.0
20260507011729 58 273 1.0 1.0 0.00 0.00 0.00 10 1016.0
20260507010229 57 273 1.0 1.0 0.00 0.00 0.00 10 1016.0
20260507004729 56 331 1.0 1.0 0.00 0.00 0.00 10 1016.0
20260507003228 57 136 1.0 1.0 0.00 0.00 0.00 10 1016.0
20260507001728 58 136 1.0 1.0 0.00 0.00 0.00 10 1015.0
20260507000228 59 136 1.0 1.0 0.00 0.00 0.00 99 1016.0
20260506233227 58 136 1.0 1.0 0.00 0.00 0.00 10 1016.0
20260506231727 59 136 1.0 1.0 0.00 0.00 0.00 10 1016.0
20260506230227 60 136 1.0 1.0 0.00 0.00 0.00 10 1016.0
20260506224726 61 136 1.0 1.0 0.00 0.00 0.00 99 1016.0
20260506223226 61 136 1.0 1.0 0.00 0.00 0.00 99 1016.0
20260506221726 61 136 1.0 1.0 0.00 0.00 0.00 10 1016.0
20260506220226 60 136 1.0 1.0 0.00 0.00 0.00 10 1016.0
20260506214725 61 136 1.0 1.0 0.00 0.00 0.00 99 1016.0
20260506213225 62 136 1.0 1.0 0.00 0.00 0.00 98 1016.0
20260506211725 63 136 1.0 1.0 0.00 0.00 0.00 95 1016.0
20260506210225 64 136 1.0 1.0 0.00 0.00 0.00 92 1016.0
20260506204724 65 136 1.0 1.0 0.00 0.00 0.00 87 1016.0
20260506203224 66 136 1.0 1.0 0.00 0.00 0.00 79 1016.0
20260506201724 66 136 1.0 1.0 0.00 0.00 0.00 77 1016.0
20260506200224 65 136 1.0 1.0 0.00 0.00 0.00 72 1016.0
20260506194723 63 136 1.0 2.0 0.00 0.00 0.00 71 1016.0
20260506193222 67 105 1.0 1.0 0.00 0.00 0.00 74 1015.0
20260506191722 67 105 1.0 1.0 0.00 0.00 0.00 72 1015.0
20260506190222 67 105 1.0 1.0 0.00 0.00 0.00 73 1015.0
20260506184721 67 105 2.0 2.0 0.00 0.00 0.00 74 1015.0
20260506183221 65 105 3.0 3.0 0.00 0.00 0.00 75 1015.0
20260506181720 67 128 3.0 3.0 0.00 0.00 0.00 82 1015.0
20260506180219 68 135 1.0 1.0 0.00 0.00 0.00 84 1015.0
20260506174719 68 135 1.0 1.0 0.00 0.00 0.00 83 1015.0
20260506173219 68 135 1.0 1.0 0.00 0.00 0.00 87 1014.0
20260506171719 67 135 1.0 1.0 0.00 0.00 0.00 10 1014.0
20260506170218 68 135 2.0 2.0 0.00 0.00 0.00 10 1014.0
20260506164718 69 135 3.0 3.0 0.00 0.00 0.00 10 1014.0
20260506163218 72 136 4.0 5.0 0.00 0.00 0.00 71 1014.0
20260506161717 73 136 4.0 5.0 0.00 0.00 0.00 69 1014.0
20260506160217 73 136 4.0 6.0 0.00 0.00 0.00 68 1014.0
20260506154717 74 136 4.0 6.0 0.00 0.00 0.00 10 1015.0
20260506153217 75 152 5.0 5.0 0.00 0.00 0.00 68 1015.0